Regional Weather Roundup
Issued by NWS

Home | Current Version | Previous Version | Graphics & Text | Print | Product List | Glossary On
Versions: 1 2 3 4 5 6 7 8 9 10 11 12 13 14 15 16 17 18 19 20 21 22 23 24 25 26 27 28 29 30 31 32 33 34 35 36 37 38 39 40 41 42 43 44 45 46 47 48 49 50
000
ASUS43 KDMX 240607
RWRIA

WEATHER ROUNDUP FOR IOWA
NATIONAL WEATHER SERVICE DES MOINES IA
100 AM CDT SUN MAY 24 2015

NOTE: "FAIR" INDICATES FEW OR NO CLOUDS BELOW 12,000 FEET WITH NO
SIGNIFICANT WEATHER AND/OR OBSTRUCTIONS TO VISIBILITY.

* - THESE STATIONS ARE NOT NWS STATIONS...THUS NOT UNDER NWS
QUALITY CONTROL.  THEY ALSO DO NOT REPORT WEATHER SUCH
AS PRECIPITATION OR FOG.

IAZ001>003-012>014-020>022-031>034-043>046-240700-
   NORTHWEST IOWA

CITY           SKY/WX    TMP DP  RH WIND       PRES   REMARKS
CARROLL *      CLOUDY    63  57  82 SE13      30.04S
CHEROKEE *     LGT RAIN  60  58  93 CALM      30.06R
DENISON *      CLOUDY    61  61 100 E8        30.02S
LE MARS *      RAIN      59  59 100 CALM      30.06F
ORANGE CITY *  RAIN      59  55  88 CALM      30.06S
SHELDON *      CLOUDY    61  55  82 NE6       30.05S
SIOUX CITY     RAIN      61  58  90 E8        30.04S FOG
6HR MIN TEMP:  60; 6HR MAX TEMP:  64; 6HR PCP:  0.11;

SPENCER        CLOUDY    63  57  81 E6        30.07S
6HR MIN TEMP:  61; 6HR MAX TEMP:  69;

STORM LAKE *   CLOUDY    63  57  82 E8        30.06F
$$

IAZ055>058-069>071-079>083-090>094-240700-
   SOUTHWEST IOWA

CITY           SKY/WX    TMP DP  RH WIND       PRES   REMARKS
ATLANTIC *     CLOUDY    63  57  82 E9        30.03F
AUDUBON *      LGT RAIN  63  55  77 SE10      30.05S
CLARINDA *     CLOUDY    61  61 100 SE10G20   30.01F
COUNCIL BLFS * CLOUDY    61  61 100 SE8       30.04R
CRESTON *      MOCLDY    59  59 100 SE13      30.05S
HARLAN  *      CLOUDY    61  61 100 SW7       30.07S
LAMONI         LGT RAIN  62  58  86 SE12      30.06F
6HR MIN TEMP:  62; 6HR MAX TEMP:  70; 6HR PCP:  0.07;

RED OAK *      CLOUDY    61  59  94 VRB7G13   30.01S
SHENANDOAH *   CLOUDY    63  61  94 SE12G18   30.01R
$$

IAZ047>049-059>061-072>074-084-240700-
   CENTRAL IOWA

CITY           SKY/WX    TMP DP  RH WIND       PRES   REMARKS
AMES           CLOUDY    64  53  67 SE5       30.07F
6HR MIN TEMP:  64; 6HR MAX TEMP:  70;

ANKENY *       CLOUDY    66  55  68 SE7       30.07S
CHARITON *       N/A     63  57  82 E6        30.08F
DES MOINES     CLOUDY    68  53  58 SE10      30.07S
6HR MIN TEMP:  68; 6HR MAX TEMP:  72;

GRINNELL*      CLOUDY    64  52  63 SE6       30.10S
KNOXVILLE *    CLOUDY    66  52  59 SE7       30.07F
MARSHALLTOWN   CLOUDY    65  51  60 SE7       30.09S
6HR MIN TEMP:  64; 6HR MAX TEMP:  73;

PELLA *        CLOUDY    65  58  76 SE5       30.10S
PERRY *        CLOUDY    64  55  70 SE8       30.06S
$$

IAZ004>006-015-016-023>025-035-036-240700-
   NORTH CENTRAL IOWA

CITY           SKY/WX    TMP DP  RH WIND       PRES   REMARKS
ALGONA *       CLOUDY    63  55  77 E6        30.09S
CLARION *      CLOUDY    64  54  68 SE8       30.08S
ESTHERVILLE    CLOUDY    61  54  77 E7        30.08S
6HR MIN TEMP:  61; 6HR MAX TEMP:  67; 6HR PCP: TRACE;

FORT DODGE *   CLOUDY    63  54  72 E3        30.08R
MASON CITY     CLOUDY    64  53  67 E3        30.11S
6HR MIN TEMP:  62; 6HR MAX TEMP:  72;

FOREST CITY *  CLOUDY    61  54  77 CALM      30.10R
IOWA FALLS *   CLOUDY    64  52  63 SE8       30.10F
$$

IAZ007>011-017>019-026>030-037>042-050>054-066-240700-
   NORTHEAST IOWA

CITY           SKY/WX    TMP DP  RH WIND       PRES   REMARKS
CEDAR RAPIDS   CLOUDY    65  51  60 SE6       30.11R
6HR MIN TEMP:  64; 6HR MAX TEMP:  75;

CHARLES CITY * CLOUDY    64  50  59 SE5       30.12S
CLINTON *      CLOUDY    63  48  59 SE9       30.17S
DECORAH *      CLOUDY    63  48  59 SE5       30.13S
DUBUQUE        CLOUDY    63  49  60 SE7       30.15F
6HR MIN TEMP:  61; 6HR MAX TEMP:  73;

MONTICELLO *   CLEAR     63  50  63 E6        30.13S
OELWEIN *      MOCLDY    63  48  59 E6        30.12S
WATERLOO       CLOUDY    64  51  62 SE3       30.10S
6HR MIN TEMP:  64; 6HR MAX TEMP:  73;

$$

IAZ064-065-067-068-078-240700-
   EAST CENTRAL IOWA

CITY           SKY/WX    TMP DP  RH WIND       PRES   REMARKS
DAVENPORT      CLOUDY    66  48  52 S7        30.15R
6HR MIN TEMP:  63; 6HR MAX TEMP:  78;

IOWA CITY      CLOUDY    64  52  64 SE5       30.13S
6HR MIN TEMP:  64; 6HR MAX TEMP:  76;

MT. PLEASANT * CLOUDY    64  51  62 SE7       30.13R
MUSCATINE *    CLOUDY    63  54  72 CALM      30.13F
QUAD CITIES    CLOUDY    65  50  58 SE6       30.14R
6HR MIN TEMP:  60; 6HR MAX TEMP:  77;

$$

IAZ062-063-075>077-085>089-095>099-240700-
   SOUTHEAST IOWA

CITY           SKY/WX    TMP DP  RH WIND       PRES   REMARKS
BURLINGTON     CLOUDY    69  51  52 SE7       30.13S
6HR MIN TEMP:  67; 6HR MAX TEMP:  74;

FAIRFIELD *    CLOUDY    63  54  72 SE7       30.11S
FORT MADISON * CLOUDY    66  52  59 SE8       30.13S
KEOKUK *       CLOUDY    68  54  60 SE6       30.11S
OSKALOOSA *    CLOUDY    65  53  65 SE7       30.10S
CENTERVILLE *  CLOUDY    63  63 100 SE8       30.11S
OTTUMWA        CLOUDY    64  54  69 SE7       30.10S
6HR MIN TEMP:  63; 6HR MAX TEMP:  70;

WASHINGTON *   MOCLDY    66  50  55 SE8       30.13S
$$

ABBREVIATIONS USED IN REMARKS
   TC - TEMPERATURES IN CELSIUS
  WCI - WIND CHILL INDEX
   HX - HEAT INDEX
  VSB - VISIBILITY
$$




USA.gov is the U.S. government's official web portal to all federal, state and local government web resources and services.